NOZ549 ENZV-ENGM

Flight info

Callsign NOZ549
Flight time 0h 38m
Altitude 29000
Route UPLEV DCT OSKOM DCT RIPAM
Aircraft B738/M-SDE2E3FGHIRWXY/LB1

Departure

Time 2026-05-06 18:31
Airport Stavanger Airport, Sola (ENZV)

Arrival

Time 2026-05-06 19:09
Airport Oslo-Gardermoen International Airport (ENGM)
Time Latitude Longitude Altitude Speed Heading
2026-05-06 18:08 58.88316 5.63070 24 ft 0 kts 254°
2026-05-06 18:21 58.88319 5.63093 29 ft 2 kts 255°
2026-05-06 18:21 58.88324 5.63124 29 ft 2 kts 255°
2026-05-06 18:21 58.88328 5.63155 30 ft 2 kts 258°
2026-05-06 18:21 58.88330 5.63186 31 ft 2 kts 262°
2026-05-06 18:22 58.88334 5.63217 27 ft 2 kts 243°
2026-05-06 18:22 58.88346 5.63237 28 ft 2 kts 176°
2026-05-06 18:22 58.88360 5.63230 28 ft 0 kts 160°
2026-05-06 18:25 58.88359 5.63231 28 ft 1 kts 159°
2026-05-06 18:25 58.88332 5.63249 28 ft 7 kts 164°
2026-05-06 18:25 58.88288 5.63284 29 ft 7 kts 139°
2026-05-06 18:26 58.88275 5.63371 31 ft 7 kts 95°
2026-05-06 18:26 58.88233 5.63431 29 ft 9 kts 179°
2026-05-06 18:26 58.88175 5.63429 29 ft 8 kts 180°
2026-05-06 18:26 58.88111 5.63434 29 ft 11 kts 178°
2026-05-06 18:27 58.88029 5.63431 30 ft 12 kts 190°
2026-05-06 18:27 58.87951 5.63379 31 ft 12 kts 204°
2026-05-06 18:27 58.87878 5.63317 30 ft 11 kts 203°
2026-05-06 18:27 58.87797 5.63289 30 ft 13 kts 179°
2026-05-06 18:28 58.87688 5.63293 31 ft 17 kts 179°
2026-05-06 18:28 58.87566 5.63300 30 ft 17 kts 179°
2026-05-06 18:28 58.87450 5.63300 30 ft 17 kts 182°
2026-05-06 18:28 58.87336 5.63303 31 ft 16 kts 179°
2026-05-06 18:29 58.87210 5.63308 31 ft 21 kts 179°
2026-05-06 18:29 58.87063 5.63315 32 ft 17 kts 171°
2026-05-06 18:29 58.86965 5.63432 31 ft 17 kts 126°
2026-05-06 18:29 58.86950 5.63647 36 ft 16 kts 88°
2026-05-06 18:30 58.86989 5.63799 35 ft 9 kts 15°
2026-05-06 18:30 58.87053 5.63801 34 ft 22 kts 359°
2026-05-06 18:30 58.87481 5.63788 33 ft 99 kts 359°
2026-05-06 18:30 58.88375 5.63768 99 ft 155 kts 357°
2026-05-06 18:31 58.89531 5.63731 673 ft 176 kts 357°
2026-05-06 18:31 58.90794 5.63735 1531 ft 183 kts 358°
2026-05-06 18:31 58.92082 5.63731 2249 ft 193 kts 358°
2026-05-06 18:31 58.93503 5.63664 2543 ft 213 kts 358°
2026-05-06 18:32 58.95018 5.63596 3056 ft 225 kts 358°
2026-05-06 18:32 58.96653 5.63535 3465 ft 242 kts 358°
2026-05-06 18:32 58.98358 5.63616 4281 ft 247 kts 11°
2026-05-06 18:32 58.99864 5.65212 5200 ft 255 kts 43°
2026-05-06 18:33 59.00816 5.68175 5979 ft 267 kts 68°
2026-05-06 18:33 59.01259 5.71714 6827 ft 273 kts 77°
2026-05-06 18:33 59.01564 5.75342 7531 ft 280 kts 79°
2026-05-06 18:33 59.01849 5.79106 8340 ft 284 kts 79°
2026-05-06 18:34 59.02139 5.82940 9112 ft 290 kts 79°
2026-05-06 18:34 59.02438 5.86846 9884 ft 295 kts 79°
2026-05-06 18:34 59.02749 5.90848 10438 ft 308 kts 79°
2026-05-06 18:34 59.03088 5.95125 10630 ft 333 kts 79°
2026-05-06 18:35 59.03456 5.99721 10839 ft 355 kts 79°
2026-05-06 18:35 59.03841 6.04538 11324 ft 366 kts 79°
2026-05-06 18:35 59.04235 6.09465 11989 ft 372 kts 79°
2026-05-06 18:35 59.04633 6.14459 12702 ft 378 kts 80°
2026-05-06 18:36 59.05040 6.19570 13386 ft 386 kts 80°
2026-05-06 18:36 59.05450 6.24764 14082 ft 391 kts 81°
2026-05-06 18:36 59.05942 6.29916 14751 ft 396 kts 73°
2026-05-06 18:36 59.06930 6.34930 15456 ft 399 kts 62°
2026-05-06 18:37 59.08159 6.39797 16150 ft 404 kts 61°
2026-05-06 18:37 59.09013 6.43108 16596 ft 408 kts 60°
2026-05-06 18:37 59.10714 6.49689 17530 ft 415 kts 61°
2026-05-06 18:37 59.12011 6.54750 18198 ft 421 kts 61°
2026-05-06 18:38 59.13314 6.59888 18795 ft 426 kts 61°
2026-05-06 18:38 59.14622 6.65089 19411 ft 429 kts 61°
2026-05-06 18:38 59.15935 6.70351 20017 ft 434 kts 62°
2026-05-06 18:38 59.17255 6.75664 20619 ft 438 kts 62°
2026-05-06 18:39 59.18583 6.81032 21213 ft 442 kts 62°
2026-05-06 18:39 59.19906 6.86395 21791 ft 446 kts 62°
2026-05-06 18:39 59.21252 6.91868 22354 ft 450 kts 62°
2026-05-06 18:40 59.23986 7.03019 23415 ft 460 kts 62°
2026-05-06 18:40 59.25368 7.08675 23914 ft 463 kts 62°
2026-05-06 18:40 59.26758 7.14383 24330 ft 468 kts 62°
2026-05-06 18:40 59.28160 7.20152 24731 ft 472 kts 63°
2026-05-06 18:41 59.29573 7.25984 25139 ft 476 kts 63°
2026-05-06 18:41 59.30995 7.31864 25531 ft 480 kts 63°
2026-05-06 18:41 59.32406 7.37717 25921 ft 484 kts 63°
2026-05-06 18:41 59.33845 7.43704 26315 ft 488 kts 63°
2026-05-06 18:42 59.35296 7.49757 26674 ft 492 kts 63°
2026-05-06 18:42 59.36752 7.55847 27057 ft 496 kts 64°
2026-05-06 18:42 59.38217 7.61992 27408 ft 500 kts 64°
2026-05-06 18:42 59.39691 7.68195 27745 ft 504 kts 64°
2026-05-06 18:43 59.41174 7.74452 28083 ft 507 kts 64°
2026-05-06 18:43 59.42162 7.78628 28317 ft 509 kts 64°
2026-05-06 18:43 59.44159 7.87099 28821 ft 513 kts 64°
2026-05-06 18:43 59.45638 7.93391 29030 ft 515 kts 65°
2026-05-06 18:44 59.47139 7.99797 29004 ft 516 kts 65°
2026-05-06 18:44 59.50114 8.12555 28981 ft 511 kts 65°
2026-05-06 18:45 59.52571 8.23149 28991 ft 512 kts 65°
2026-05-06 18:45 59.55525 8.35952 28994 ft 514 kts 65°
2026-05-06 18:45 59.56994 8.42348 28863 ft 507 kts 65°
2026-05-06 18:46 59.58433 8.48634 28109 ft 498 kts 65°
2026-05-06 18:46 59.60285 8.56752 27391 ft 480 kts 65°
2026-05-06 18:46 59.61633 8.62682 26838 ft 468 kts 65°
2026-05-06 18:46 59.62947 8.68475 26326 ft 457 kts 65°
2026-05-06 18:47 59.63800 8.72247 25972 ft 451 kts 65°
2026-05-06 18:47 59.65071 8.77875 25465 ft 449 kts 64°
2026-05-06 18:47 59.66343 8.83515 24957 ft 449 kts 64°
2026-05-06 18:47 59.67797 8.88949 24354 ft 447 kts 53°
2026-05-06 18:48 59.69574 8.93977 23826 ft 444 kts 50°
2026-05-06 18:48 59.71399 8.98899 23259 ft 443 kts 50°
2026-05-06 18:48 59.73230 9.03793 22669 ft 442 kts 50°
2026-05-06 18:48 59.75045 9.08683 22124 ft 439 kts 50°
2026-05-06 18:49 59.76832 9.13556 21621 ft 435 kts 50°
2026-05-06 18:49 59.78598 9.18420 21065 ft 433 kts 51°
2026-05-06 18:49 59.80342 9.23263 20575 ft 430 kts 51°
2026-05-06 18:49 59.82071 9.28088 20050 ft 427 kts 51°
2026-05-06 18:50 59.83784 9.32882 19531 ft 425 kts 51°
2026-05-06 18:50 59.85466 9.37604 19032 ft 422 kts 51°
2026-05-06 18:50 59.87156 9.42355 18526 ft 420 kts 51°
2026-05-06 18:50 59.88838 9.47092 17991 ft 418 kts 51°
2026-05-06 18:51 59.90511 9.51814 17417 ft 415 kts 51°
2026-05-06 18:51 59.92159 9.56478 16900 ft 407 kts 51°
2026-05-06 18:51 59.93760 9.61020 16424 ft 394 kts 52°
2026-05-06 18:51 59.95315 9.65437 15921 ft 383 kts 52°
2026-05-06 18:52 59.96819 9.69718 15462 ft 372 kts 52°
2026-05-06 18:52 59.98283 9.73888 15019 ft 362 kts 52°
2026-05-06 18:52 59.99692 9.77906 14580 ft 354 kts 52°
2026-05-06 18:52 60.01086 9.81890 14135 ft 346 kts 52°
2026-05-06 18:53 60.02449 9.85788 13706 ft 339 kts 52°
2026-05-06 18:53 60.03780 9.89604 13280 ft 331 kts 52°
2026-05-06 18:53 60.05079 9.93333 12875 ft 323 kts 53°
2026-05-06 18:53 60.06349 9.96984 12472 ft 317 kts 53°
2026-05-06 18:54 60.07599 10.00584 12098 ft 312 kts 53°
2026-05-06 18:54 60.08827 10.04126 12025 ft 311 kts 54°
2026-05-06 18:54 60.10066 10.07701 11939 ft 313 kts 54°
2026-05-06 18:54 60.11307 10.11291 11937 ft 314 kts 54°
2026-05-06 18:55 60.12531 10.14841 11930 ft 313 kts 54°
2026-05-06 18:55 60.13774 10.18425 11934 ft 313 kts 51°
2026-05-06 18:55 60.15361 10.21335 11927 ft 309 kts 27°
2026-05-06 18:55 60.17339 10.22906 11936 ft 304 kts 13°
2026-05-06 18:56 60.19377 10.24074 11925 ft 305 kts 12°
2026-05-06 18:56 60.21383 10.25471 11906 ft 310 kts 29°
2026-05-06 18:56 60.22922 10.28478 11906 ft 310 kts 55°
2026-05-06 18:56 60.24058 10.32154 11721 ft 309 kts 58°
2026-05-06 18:57 60.25147 10.35835 11400 ft 311 kts 59°
2026-05-06 18:57 60.26243 10.39564 11076 ft 307 kts 59°
2026-05-06 18:57 60.27318 10.43211 10761 ft 298 kts 59°
2026-05-06 18:57 60.28366 10.46748 10433 ft 290 kts 59°
2026-05-06 18:58 60.29389 10.50189 10123 ft 283 kts 59°
2026-05-06 18:58 60.30388 10.53544 9812 ft 276 kts 59°
2026-05-06 18:58 60.31366 10.56825 9472 ft 269 kts 59°
2026-05-06 18:58 60.32320 10.60028 9133 ft 263 kts 59°
2026-05-06 18:59 60.33264 10.63199 8822 ft 264 kts 59°
2026-05-06 18:59 60.34193 10.66324 8508 ft 265 kts 59°
2026-05-06 18:59 60.35144 10.69521 8192 ft 265 kts 59°
2026-05-06 18:59 60.36094 10.72724 7873 ft 265 kts 59°
2026-05-06 19:00 60.37039 10.75909 7552 ft 262 kts 59°
2026-05-06 19:00 60.37963 10.79032 7238 ft 256 kts 59°
2026-05-06 19:00 60.38861 10.82069 7099 ft 245 kts 59°
2026-05-06 19:00 60.39735 10.85027 6854 ft 248 kts 59°
2026-05-06 19:01 60.40628 10.88054 6618 ft 252 kts 59°
2026-05-06 19:01 60.41524 10.91094 6358 ft 251 kts 58°
2026-05-06 19:01 60.42404 10.94081 6105 ft 249 kts 58°
2026-05-06 19:01 60.43288 10.97091 5825 ft 248 kts 58°
2026-05-06 19:02 60.44165 11.00083 5571 ft 247 kts 58°
2026-05-06 19:02 60.45032 11.03039 5283 ft 241 kts 58°
2026-05-06 19:02 60.45745 11.06047 5042 ft 234 kts 79°
2026-05-06 19:02 60.45654 11.09203 4987 ft 222 kts 110°
2026-05-06 19:03 60.44897 11.11863 5022 ft 218 kts 132°
2026-05-06 19:03 60.43826 11.14080 4858 ft 225 kts 137°
2026-05-06 19:03 60.42697 11.16250 4575 ft 222 kts 138°
2026-05-06 19:03 60.41588 11.18376 4301 ft 216 kts 138°
2026-05-06 19:04 60.40346 11.19841 3983 ft 208 kts 175°
2026-05-06 19:04 60.38987 11.19382 3762 ft 194 kts 202°
2026-05-06 19:04 60.37731 11.18511 3522 ft 189 kts 199°
2026-05-06 19:04 60.36488 11.17753 3270 ft 184 kts 198°
2026-05-06 19:05 60.35258 11.17034 3070 ft 186 kts 198°
2026-05-06 19:05 60.34010 11.16313 3023 ft 187 kts 198°
2026-05-06 19:05 60.32765 11.15597 2982 ft 185 kts 198°
2026-05-06 19:05 60.31543 11.14892 2780 ft 178 kts 198°
2026-05-06 19:06 60.30393 11.14232 2548 ft 169 kts 198°
2026-05-06 19:06 60.29297 11.13600 2309 ft 159 kts 197°
2026-05-06 19:06 60.28251 11.12997 2107 ft 156 kts 198°
2026-05-06 19:06 60.27222 11.12403 1887 ft 153 kts 198°
2026-05-06 19:07 60.26215 11.11823 1663 ft 149 kts 198°
2026-05-06 19:07 60.25216 11.11247 1464 ft 150 kts 198°
2026-05-06 19:07 60.24209 11.10666 1259 ft 150 kts 198°
2026-05-06 19:07 60.23207 11.10089 1042 ft 149 kts 198°
2026-05-06 19:08 60.22227 11.09521 850 ft 148 kts 198°
2026-05-06 19:08 60.21237 11.08952 689 ft 146 kts 198°
2026-05-06 19:08 60.20358 11.08445 675 ft 112 kts 196°
2026-05-06 19:08 60.19767 11.08105 672 ft 61 kts 195°
2026-05-06 19:09 60.19443 11.07919 672 ft 42 kts 196°
2026-05-06 19:09 60.19299 11.07899 671 ft 13 kts 146°
2026-05-06 19:09 60.19267 11.07991 670 ft 7 kts 107°
2026-05-06 19:09 60.19259 11.08048 669 ft 4 kts 105°
2026-05-06 19:10 60.19251 11.08104 671 ft 5 kts 105°
2026-05-06 19:10 60.19240 11.08186 672 ft 8 kts 105°
2026-05-06 19:10 60.19229 11.08325 673 ft 10 kts 72°
2026-05-06 19:10 60.19287 11.08391 674 ft 10 kts 16°
2026-05-06 19:11 60.19350 11.08428 675 ft 10 kts 16°
2026-05-06 19:11 60.19426 11.08471 676 ft 13 kts 16°
2026-05-06 19:11 60.19517 11.08523 677 ft 13 kts 16°
2026-05-06 19:11 60.19604 11.08573 675 ft 13 kts 16°
2026-05-06 19:12 60.19703 11.08630 678 ft 18 kts 16°
2026-05-06 19:12 60.19773 11.08731 677 ft 12 kts 79°
2026-05-06 19:12 60.19753 11.08897 679 ft 12 kts 106°
2026-05-06 19:12 60.19730 11.09056 682 ft 12 kts 106°
2026-05-06 19:13 60.19707 11.09214 680 ft 11 kts 105°
2026-05-06 19:13 60.19686 11.09367 682 ft 12 kts 106°
2026-05-06 19:13 60.19662 11.09530 680 ft 12 kts 106°
2026-05-06 19:13 60.19643 11.09665 683 ft 9 kts 109°
2026-05-06 19:14 60.19611 11.09740 681 ft 6 kts 136°
2026-05-06 19:14 60.19579 11.09801 681 ft 6 kts 138°
2026-05-06 19:14 60.19544 11.09819 684 ft 4 kts 182°
2026-05-06 19:14 60.19521 11.09817 680 ft 2 kts 182°
2026-05-06 19:15 60.19514 11.09817 681 ft 0 kts 182°